2017-008BN

Last updated on Wed Mar 01 2017 00:15:03 GMT+0000 (Coordinated Universal Time)

1 42008U 17008BN 17059.09031856 .00001665 00000-0 75908-4 0 9995 2 42008 97.5098 120.7035 0007125 227.0628 132.9988 15.22059826 1869

Satellite not in orbit

2017-008BN